www.pogodaiklimat.ru

Погода и климат >> Архив погоды >> Таиланд >> Пхукет


АРХИВ ПОГОДЫ на Пхукете

Время (UTC), дата Ветер
(напр.,м/с)
 
Видим.   Явления Облачность Т
(С)
Тd
(С)
f
(%)
Тe
(С)
Тes
(С)
Комфортность P
(гПа)
Po
(гПа)
Тmin
(С)
Tmax
(С)
R
(мм)
R24
(мм)
S
(см)
03 10.07 ЮВ 3 10 км 6/3 600 м
[Cu med, cong Ac lent Cs]
+31.2 +24.8 69 +44 +51 опасность
перегрева
1011.1 1010.7
06 10.07 ЮВ 4 10 км 5/3 600 м
[Cu med, cong Ac lent Ci sp]
+34.2 +25.8 62 +50 +58 опасность
перегрева
1009.3 1008.9
09 10.07 З 4 10 км 8/3 600 м
[Cu med, cong Ac lent Cs]
+30.9 +22.9 62 +41 +43 опасность
перегрева
1008.3 1007.8
12 10.07 СЗ 3 10 км 6/3 600 м
[Cu hum Ac und Cs]
+30.0 +24.6 73 +43 +43 опасность
перегрева
1009.0 1008.6 +34.5
15 10.07 штиль 0 10 км 3/1 600 м
[Cu hum Ci fib]
+28.5 +25.1 82 +41 +41 опасность
перегрева
1010.6 1010.2
18 10.07 штиль 0 10 км 3/1 600 м
[Cu hum Ci fib]
+27.1 +24.8 87 +39 +39 очень
душно
1010.6 1010.2
21 10.07 штиль 0 10 км 6/3 600 м
[Cu hum Ac lent Cs]
+26.6 +24.7 89 +38 +38 очень
душно
1009.9 1009.5
00 11.07 штиль 0 10 км 4/1 600 м
[Cu hum Ac lent Cs]
+26.4 +24.7 90 +37 +38 очень
душно
1011.3 1010.8 +26.0
03 11.07 штиль 0 10 км 8/3 600 м
[Cu med, cong Ac lent Cs]
+31.0 +24.1 67 +43 +51 опасность
перегрева
1012.0 1011.6
06 11.07 штиль 0 10 км 5/3 600 м
[Cu med, cong Ac lent Cs]
+34.0 +22.4 51 +43 +60 опасность
перегрева
1011.3 1010.9
09 11.07 В 3 10 км 8/3 600 м
[Cu Sc Ac lent Cs]
+34.8 +25.3 58 +49 +52 опасность
перегрева
1009.3 1008.9
12 11.07 штиль 0 10 км 6/3 600 м
[Cu med, cong Ac lent Cs]
+30.5 +25.3 74 +44 +44 опасность
перегрева
1009.5 1009.1 +35.0
15 11.07 штиль 0 10 км 5/3 600 м
[Cu hum Ac lent Cs]
+29.0 +24.1 75 +40 +40 очень
душно
1011.1 1010.6
18 11.07 штиль 0 10 км 3/1 600 м
[Cu hum Ac lent Cs]
+28.0 +24.4 81 +39 +39 очень
душно
1010.8 1010.4
21 11.07 штиль 0 10 км 8/3 600 м
[Cu med, cong Ac lent Cs]
+27.0 +24.4 86 +38 +38 очень
душно
1009.9 1009.4
00 12.07 штиль 0 10 км 3/1 600 м
[Cu hum Ci fib]
+26.2 +23.9 87 +36 +37 очень
душно
1010.8 1010.4 +25.9
03 12.07 штиль 0 10 км 4/3 600 м
[Cu hum Ac lent Ci sp]
+32.0 +23.3 60 +43 +55 опасность
перегрева
1012.3 1011.9
06 12.07 ЮВ 6 10 км 4/3 600 м
[Cu hum Ac lent Ci sp]
+34.0 +24.8 59 +47 +53 опасность
перегрева
1010.9 1010.4
09 12.07 ЮВ 5 10 км 9/3 600 м
[Cu Sc Ac und Cs]
+32.9 +25.3 64 +47 +49 опасность
перегрева
1009.4 1009.0
12 12.07 штиль 0 10 км 9/3 600 м
[Cu Sc Ac und Cs]
+30.3 +24.7 72 +43 +43 опасность
перегрева
1009.5 1009.1 +35.4
15 12.07 ЮВ 3 10 км 8/3 600 м
[Cu Sc Ac und Cs]
+29.7 +24.6 74 +42 +42 опасность
перегрева
1011.4 1011.0
18 12.07 штиль 0 10 км 4/1 600 м
[Cu hum Ac lent Ci sp]
+29.0 +24.6 77 +41 +41 опасность
перегрева
1011.1 1010.7
21 12.07 штиль 0 10 км 5/1 600 м
[Cu hum Ac lent Cs]
+27.8 +25.1 85 +40 +40 очень
душно
1010.2 1009.8
00 13.07 штиль 0 10 км 6/3 600 м
[Cb cap Ac lent Cs]
+27.5 +24.2 82 +38 +39 очень
душно
1011.2 1010.7 +27.0
03 13.07 штиль 0 10 км {гроза} 4/3 600 м
[Cu med, cong Ac lent Cs]
+31.5 +24.4 66 +44 +56 опасность
перегрева
1011.8 1011.4 0.0
06 13.07 штиль 0 6000 м гроза, ливневой дождь 10/3 300 м
[Cb cap Ac und Cs]
+26.4 +23.6 85 +36 +46 очень
душно
1011.5 1011.0 11
09 13.07 штиль 0 10 км {гроза} 6/3 600 м
[Cu med, cong Ac lent Cs]
+30.8 +24.7 70 +44 +50 опасность
перегрева
1009.1 1008.7 4
12 13.07 штиль 0 10 км {гроза} 4/3 600 м
[Cu med, cong Ac lent Cs]
+29.8 +25.3 77 +44 +44 опасность
перегрева
1009.2 1008.8 +33.5 15
15 13.07 штиль 0 10 км 3/1 600 м
[Cu hum Ac lent Cs]
+28.5 +25.2 82 +41 +41 опасность
перегрева
1011.1 1010.6
18 13.07 штиль 0 10 км 4/3 600 м
[Cu med, cong Ac lent Cs]
+27.5 +24.6 84 +39 +39 очень
душно
1010.6 1010.2
21 13.07 штиль 0 10 км 8/3 600 м
[Cu med, cong Ac lent Cs]
+26.5 +24.3 88 +37 +37 очень
душно
1010.3 1009.8
00 14.07 штиль 0 10 км 3/1 600 м
[Cu hum Ci fib]
+26.8 +24.0 85 +37 +38 очень
душно
1009.9 1009.4 +26.4
03 14.07 СЗ 5 10 км 3/3 600 м
[Cu hum Ci fib]
+32.1 +23.8 62 +44 +49 опасность
перегрева
1010.9 1010.4
06 14.07 З 6 10 км 3/3 600 м
[Cu hum Ci sp]
+33.7 +25.0 60 +47 +53 опасность
перегрева
1009.8 1009.4
09 14.07 З 2 9000 м слаб. дождь 8/3 300 м
[Cu Sc Ac und Cs]
+29.7 +25.5 78 +44 +47 опасность
перегрева
1007.9 1007.5 4
12 14.07 З 3 10 км в посл. час дождь 8/3 600 м
[Cu Sc Ac und Cs]
+28.5 +25.1 82 +41 +41 опасность
перегрева
1007.8 1007.4 +33.7 1
15 14.07 З 2 10 км 5/3 600 м
[Cu hum Ac lent Ci sp]
+28.1 +24.7 82 +40 +40 очень
душно
1009.7 1009.3
18 14.07 З 2 10 км 3/1 600 м
[Cu hum Ac lent Ci sp]
+27.7 +23.8 79 +38 +38 очень
душно
1009.2 1008.7
21 14.07 З 2 10 км 5/3 600 м
[Cu hum Ac lent Ci sp]
+27.3 +24.9 87 +39 +39 очень
душно
1007.8 1007.3
00 15.07 штиль 0 10 км 4/3 600 м
[Cu med, cong Ac lent Cs]
+27.5 +24.6 84 +39 +40 очень
душно
1008.2 1007.8 +26.5
03 15.07 штиль 0 10 км 6/3 600 м
[Cu med, cong Ac lent Cs]
+32.0 +24.6 65 +45 +55 опасность
перегрева
1009.2 1008.8
06 15.07 штиль 0 8000 м слаб. дождь 8/3 300 м
[Cu Sc Ac und Cs]
+30.6 +26.0 77 +46 +59 опасность
перегрева
1008.5 1008.0 0.6
09 15.07 З 5 10 км 6/3 600 м
[Cu med, cong Ac lent Cs]
+33.4 +23.5 56 +44 +47 опасность
перегрева
1006.6 1006.1
12 15.07 штиль 0 10 км 6/3 600 м
[Cu med, cong Ac lent Cs]
+30.0 +24.3 72 +42 +42 опасность
перегрева
1007.0 1006.6 +34.0
15 15.07 штиль 0 10 км 4/1 600 м
[Cu med, cong Ac lent Cs]
+29.3 +25.3 79 +43 +43 опасность
перегрева
1008.8 1008.3
18 15.07 штиль 0 10 км 8/3 600 м
[Cu med, cong Ac lent Cs]
+29.0 +24.7 78 +41 +41 опасность
перегрева
1008.5 1008.1
21 15.07 штиль 0 10 км 5/3 600 м
[Cu med, cong Ac lent Cs]
+27.5 +24.6 84 +39 +39 очень
душно
1008.2 1007.8
00 16.07 штиль 0 10 км в посл. час дождь 5/3 600 м
[Cu med, cong Ac lent Ci sp]
+27.6 +25.0 86 +40 +40 очень
душно
1007.5 1007.0 +27.2 1
03 16.07 З 5 10 км 5/3 600 м
[Cu med, cong Ac lent Ci sp]
+31.8 +24.5 65 +44 +49 опасность
перегрева
1008.8 1008.4
06 16.07 З 6 10 км 9/4 600 м
[Cu Sc Ac und Cs]
+31.9 +24.8 66 +45 +48 опасность
перегрева
1007.9 1007.4
09 16.07 штиль 0 10 км в посл. час гроза 10/4 600 м
[Cu Sc Ac As Cs]
+25.8 +24.6 93 +36 +39 очень
душно
1006.6 1006.1 30
12 16.07 СВ 4 6000 м слаб. дождь {гроза} 10/4 300 м
[Cu Sc Ac As Cs]
+24.6 +23.6 94 +33 +33 очень
душно
1008.0 1007.6 +32.8 39
15 16.07 штиль 0 8000 м слаб. дождь 10/4 300 м
[Cu Sc Ac As Cs]
+24.9 +24.0 95 +34 +34 очень
душно
1010.4 1009.9 7
18 16.07 З 2 9000 м слаб. дождь 10/4 300 м
[Cu Sc Ac As Cs]
+24.7 +23.5 93 +33 +33 очень
душно
1008.4 1007.9 3
21 16.07 штиль 0 10 км {дождь} 9/3 600 м
[Cu Sc Ac und Cs]
+24.8 +23.9 95 +34 +34 очень
душно
1006.8 1006.4 0.2
00 17.07 штиль 0 10 км {дождь} 5/3 600 м
[Cu med, cong Ac lent Cs]
+25.5 +24.8 96 +36 +37 очень
душно
1007.1 1006.7 +24.4 79

 

Местоположение метеостанции Пхукет (Таиланд): широта 7.88 долгота 98.40 высота над уровнем моря 3 м.

В архиве по умолчанию представлена погода на Пхукете за последнюю неделю. Архивные данные за месяц целиком и за предыдущие месяцы, начиная с января 2011 года, Вы можете получить, выбрав интересующий диапазон дат из раскрывающегося списка и нажав кнопку "Ввод!".


*Определитесь, кто Вы:
робот инопланетянин человек

Внимание! Время в таблицах - всемирное. Для получения местного времени необходимо прибавить поправку, которая равна 7 ч.

Смотрите также архив погоды в соседних городах и на ближайших метеорологических станциях:

Погода в Пхукет аэропорту (Таиланд) (29 км)
Погода в Краби (Таиланд) (61 км)
Погода на Ко Ланта (Таиланд) (82 км)
Погода в Такуа Па (Таиланд) (91 км)
Погода в Прасанге (Таиланд) (121 км)
Погода в Чаванге (Таиланд) (136 км)
Погода в Транге (Таиланд) (140 км)
Погода в Сураттхани (Таиланд) (161 км)
Погода в Накхонситхаммарате (Таиланд) (177 км)
Погода в Накхонситхаммарате 2 (Таиланд) (185 км)

Пояснения к столбцам:

Ветер - указаны скорость ветра в м/с - средняя за 10 мин, порывы в срок и между сроками (в фигурных скобках) и направление, откуда дует ветер: С - северный, СВ - северо-восточный, В - восточный, ЮВ - юго-восточный, Ю - южный, ЮЗ - юго-западный, З - западный, СЗ - северо-западный.
Видимость - горизонтальная дальность видимости в метрах или километрах. При видимости от 1 до 10 км при отсутствии осадков обычно наблюдается дымка, при ухудшении видимости до 1 км и менее - туман. В сухую погоду видимость может ухудшаться дымом, пылью или мглою.
Явления - указаны атмосферные явления, наблюдавшиеся в срок или в последний час перед сроком; фигурными скобками обозначены явления, наблюдавшиеся между сроками (за 1-3 часа до срока); квадратными скобками обозначены град или гололедные отложения с указанием их диаметра в мм.
Облачность - указаны через наклонную черту общая и нижняя облачность в баллах и высота нижней границы облаков в метрах; квадратными скобками обозначены формы облаков: Ci - перистые, Cs - перисто-слоистые, Cc - перисто-кучевые, Ac - высококучевые, As - высокослоистые, Sc - слоисто-кучевые, Ns - слоисто-дождевые, Cu - кучевые, Cb - кучево-дождевые. Подробнее классификацию облаков см. в Атласе облаков (PDF).
T - Температура воздуха - температура, измеренная на высоте 2 м над землей.
Td - Температура точки росы - температура, при понижении до которой содержащийся в воздухе водяной пар достигнет насыщения.
f - Относительная влажность воздуха - влажноcть воздуха, измеренная на высоте 2 м над землей.
Te - Эффективная температура - температура, которую ощущает одетый по сезону человек в тени. Характеристика душности погоды. При расчете учитывается влияние влажности воздуха и скорости ветра на теплоощущения человека.
Tes - Эффективная температура на солнце - температура, которую ощущает человек, с поправкой на солнечный нагрев. Характеристика знойности погоды. Зависит от высоты солнца над горизонтом, облачности и скорости ветра. Ночью, в пасмурную погоду, а также при ветре 12 м/с и более поправка равна нулю.
P - Атмосферное давление - приведенное к уровню моря атмосферное давление.
Po - Атмосферное давление - измеренное на уровне метеостанции атмосферное давление.
Tmin - Минимальная температура - минимум температуры воздуха на высоте 2 м над землей.
Tmax - Максимальная температура - максимум температуры воздуха на высоте 2 м над землей.
R - Количество осадков - Количество выпавших осадков за период времени, мм. При наведении курсора мыши на число - период времени, за который выпало указанное количество осадков.
R24 - Количество осадков - Количество выпавших осадков за 24 часа, мм.
S - Снежный покров - Высота снежного покрова, см. При наведении курсора мыши на число - состояние снежного покрова и степень покрытия местности в баллах.